contact:dominique.lefevre@mio.osupytheas.fr, maurice.libes@osupytheas.fr, didier.mallarino@osupytheas.fr
Project:EMSO http://www.emso-fr.org/EMSO-France
Depth: 2436.0 m
Title:EMSO Ligure Ouest : Data MII capteur MICROCAT
DateTime_Computer,Latitude,Longitude,Temperature,Conductivity,Pressure,DateTime_Instrument
DateTime_Computer,Latitude,Longitude,degC,S m-1,dbar,DateTime_Instrument
2023-06-20T00:00:03Z,42.805,6.029,13.3026,4.60098,2470.871,2023-6-20T02:02:18Z
2023-06-20T00:03:06Z,42.805,6.029,13.3029,4.60093,2470.833,2023-6-20T02:05:21Z
2023-06-20T00:06:10Z,42.805,6.029,13.3026,4.60092,2470.824,2023-6-20T02:08:24Z
2023-06-20T00:09:13Z,42.805,6.029,13.3028,4.60093,2470.81,2023-6-20T02:11:27Z
2023-06-20T00:12:16Z,42.805,6.029,13.3028,4.60097,2470.81,2023-6-20T02:14:30Z
2023-06-20T00:15:19Z,42.805,6.029,13.3026,4.60092,2470.8,2023-6-20T02:17:33Z
2023-06-20T00:18:22Z,42.805,6.029,13.3031,4.60103,2470.833,2023-6-20T02:20:36Z
2023-06-20T00:21:25Z,42.805,6.029,13.3031,4.60103,2470.81,2023-6-20T02:23:39Z
2023-06-20T00:24:28Z,42.805,6.029,13.3026,4.60095,2470.796,2023-6-20T02:26:43Z
2023-06-20T00:27:31Z,42.805,6.029,13.3025,4.60089,2470.833,2023-6-20T02:29:46Z
2023-06-20T00:30:34Z,42.805,6.029,13.3027,4.60094,2470.824,2023-6-20T02:32:49Z
2023-06-20T00:33:37Z,42.805,6.029,13.3027,4.60103,2470.81,2023-6-20T02:35:52Z
2023-06-20T00:36:40Z,42.805,6.029,13.3029,4.60099,2470.824,2023-6-20T02:38:55Z
2023-06-20T00:39:43Z,42.805,6.029,13.3025,4.60095,2470.81,2023-6-20T02:41:58Z
2023-06-20T00:42:47Z,42.805,6.029,13.3026,4.60097,2470.777,2023-6-20T02:45:01Z
2023-06-20T00:45:50Z,42.805,6.029,13.3032,4.60097,2470.81,2023-6-20T02:48:04Z
2023-06-20T00:48:53Z,42.805,6.029,13.3030,4.60090,2470.81,2023-6-20T02:51:07Z
2023-06-20T00:51:56Z,42.805,6.029,13.3026,4.60089,2470.8,2023-6-20T02:54:10Z
2023-06-20T00:54:59Z,42.805,6.029,13.3027,4.60094,2470.833,2023-6-20T02:57:13Z
2023-06-20T00:58:02Z,42.805,6.029,13.3026,4.60094,2470.824,2023-6-20T03:00:16Z
2023-06-20T01:01:05Z,42.805,6.029,13.3029,4.60102,2470.8,2023-6-20T03:03:20Z
2023-06-20T01:04:08Z,42.805,6.029,13.3029,4.60095,2470.763,2023-6-20T03:06:23Z
2023-06-20T01:07:11Z,42.805,6.029,13.3029,4.60102,2470.763,2023-6-20T03:09:26Z
2023-06-20T01:10:14Z,42.805,6.029,13.3031,4.60102,2470.8,2023-6-20T03:12:29Z
2023-06-20T01:13:17Z,42.805,6.029,13.3031,4.60099,2470.763,2023-6-20T03:15:32Z
2023-06-20T01:16:20Z,42.805,6.029,13.3026,4.60098,2470.763,2023-6-20T03:18:35Z
2023-06-20T01:19:23Z,42.805,6.029,13.3031,4.60104,2470.787,2023-6-20T03:21:38Z
2023-06-20T01:22:27Z,42.805,6.029,13.3025,4.60097,2470.787,2023-6-20T03:24:41Z
2023-06-20T01:25:30Z,42.805,6.029,13.3033,4.60099,2470.763,2023-6-20T03:27:44Z
2023-06-20T01:28:33Z,42.805,6.029,13.3031,4.60099,2470.787,2023-6-20T03:30:47Z
2023-06-20T01:31:36Z,42.805,6.029,13.3028,4.60093,2470.773,2023-6-20T03:33:50Z
2023-06-20T01:34:39Z,42.805,6.029,13.3033,4.60104,2470.787,2023-6-20T03:36:53Z
2023-06-20T01:37:42Z,42.805,6.029,13.3026,4.60097,2470.763,2023-6-20T03:39:57Z
2023-06-20T01:40:45Z,42.805,6.029,13.3027,4.60093,2470.763,2023-6-20T03:43:00Z
2023-06-20T01:43:48Z,42.805,6.029,13.3028,4.60090,2470.787,2023-6-20T03:46:03Z
2023-06-20T01:46:51Z,42.805,6.029,13.3029,4.60095,2470.787,2023-6-20T03:49:06Z
2023-06-20T01:49:54Z,42.805,6.029,13.3026,4.60086,2470.777,2023-6-20T03:52:09Z
2023-06-20T01:52:57Z,42.805,6.029,13.3026,4.60094,2470.763,2023-6-20T03:55:12Z
2023-06-20T01:56:00Z,42.805,6.029,13.3031,4.60090,2470.763,2023-6-20T03:58:15Z
2023-06-20T01:59:04Z,42.805,6.029,13.3026,4.60092,2470.74,2023-6-20T04:01:18Z
2023-06-20T02:02:07Z,42.805,6.029,13.3032,4.60106,2470.74,2023-6-20T04:04:21Z
2023-06-20T02:05:10Z,42.805,6.029,13.3027,4.60102,2470.763,2023-6-20T04:07:24Z
2023-06-20T02:08:13Z,42.805,6.029,13.3028,4.60104,2470.787,2023-6-20T04:10:27Z
2023-06-20T02:11:16Z,42.805,6.029,13.3026,4.60099,2470.74,2023-6-20T04:13:30Z
2023-06-20T02:14:19Z,42.805,6.029,13.3027,4.60091,2470.787,2023-6-20T04:16:33Z
2023-06-20T02:17:22Z,42.805,6.029,13.3027,4.60090,2470.763,2023-6-20T04:19:37Z
2023-06-20T02:20:25Z,42.805,6.029,13.3031,4.60094,2470.787,2023-6-20T04:22:40Z
2023-06-20T02:23:28Z,42.805,6.029,13.3031,4.60098,2470.763,2023-6-20T04:25:43Z
2023-06-20T02:26:31Z,42.805,6.029,13.3027,4.60102,2470.763,2023-6-20T04:28:46Z
2023-06-20T02:29:34Z,42.805,6.029,13.3031,4.60093,2470.754,2023-6-20T04:31:49Z
2023-06-20T02:32:37Z,42.805,6.029,13.3028,4.60102,2470.777,2023-6-20T04:34:52Z
2023-06-20T02:35:40Z,42.805,6.029,13.3030,4.60092,2470.74,2023-6-20T04:37:55Z
2023-06-20T02:38:44Z,42.805,6.029,13.3031,4.60095,2470.763,2023-6-20T04:40:58Z
2023-06-20T02:41:47Z,42.805,6.029,13.3034,4.60098,2470.73,2023-6-20T04:44:01Z
2023-06-20T02:44:50Z,42.805,6.029,13.3029,4.60096,2470.763,2023-6-20T04:47:04Z
2023-06-20T02:47:53Z,42.805,6.029,13.3030,4.60095,2470.763,2023-6-20T04:50:07Z
2023-06-20T02:50:56Z,42.805,6.029,13.3029,4.60094,2470.74,2023-6-20T04:53:10Z
2023-06-20T02:53:59Z,42.805,6.029,13.3029,4.60099,2470.777,2023-6-20T04:56:14Z
2023-06-20T02:57:02Z,42.805,6.029,13.3024,4.60095,2470.763,2023-6-20T04:59:17Z
2023-06-20T03:00:05Z,42.805,6.029,13.3026,4.60098,2470.754,2023-6-20T05:02:20Z
2023-06-20T03:03:08Z,42.805,6.029,13.3033,4.60105,2470.754,2023-6-20T05:05:23Z
2023-06-20T03:06:11Z,42.805,6.029,13.3035,4.60101,2470.754,2023-6-20T05:08:26Z
2023-06-20T03:09:14Z,42.805,6.029,13.3031,4.60095,2470.763,2023-6-20T05:11:29Z
2023-06-20T03:12:17Z,42.805,6.029,13.3031,4.60094,2470.74,2023-6-20T05:14:32Z
2023-06-20T03:15:21Z,42.805,6.029,13.3032,4.60102,2470.74,2023-6-20T05:17:35Z
2023-06-20T03:18:24Z,42.805,6.029,13.3029,4.60096,2470.754,2023-6-20T05:20:38Z
2023-06-20T03:21:27Z,42.805,6.029,13.3033,4.60097,2470.73,2023-6-20T05:23:41Z
2023-06-20T03:24:30Z,42.805,6.029,13.3031,4.60093,2470.754,2023-6-20T05:26:44Z
2023-06-20T03:27:33Z,42.805,6.029,13.3030,4.60108,2470.754,2023-6-20T05:29:47Z
2023-06-20T03:30:36Z,42.805,6.029,13.3033,4.60093,2470.754,2023-6-20T05:32:50Z
2023-06-20T03:33:39Z,42.805,6.029,13.3027,4.60092,2470.74,2023-6-20T05:35:54Z
2023-06-20T03:36:42Z,42.805,6.029,13.3031,4.60091,2470.73,2023-6-20T05:38:57Z
2023-06-20T03:39:45Z,42.805,6.029,13.3031,4.60094,2470.74,2023-6-20T05:42:00Z
2023-06-20T03:42:48Z,42.805,6.029,13.3026,4.60097,2470.74,2023-6-20T05:45:03Z
2023-06-20T03:45:51Z,42.805,6.029,13.3031,4.60098,2470.707,2023-6-20T05:48:06Z
2023-06-20T03:48:54Z,42.805,6.029,13.3034,4.60102,2470.777,2023-6-20T05:51:09Z
2023-06-20T03:51:58Z,42.805,6.029,13.3032,4.60097,2470.74,2023-6-20T05:54:12Z
2023-06-20T03:55:01Z,42.805,6.029,13.3027,4.60091,2470.74,2023-6-20T05:57:15Z
2023-06-20T03:58:04Z,42.805,6.029,13.3032,4.60094,2470.717,2023-6-20T06:00:18Z
2023-06-20T04:01:07Z,42.805,6.029,13.3028,4.60102,2470.74,2023-6-20T06:03:21Z
2023-06-20T04:04:10Z,42.805,6.029,13.3029,4.60088,2470.74,2023-6-20T06:06:24Z
2023-06-20T04:07:13Z,42.805,6.029,13.3024,4.60089,2470.777,2023-6-20T06:09:27Z
2023-06-20T04:10:16Z,42.805,6.029,13.3030,4.60091,2470.74,2023-6-20T06:12:30Z
2023-06-20T04:13:19Z,42.805,6.029,13.3029,4.60096,2470.777,2023-6-20T06:15:34Z
2023-06-20T04:16:22Z,42.805,6.029,13.3031,4.60090,2470.754,2023-6-20T06:18:37Z
2023-06-20T04:19:25Z,42.805,6.029,13.3036,4.60100,2470.74,2023-6-20T06:21:40Z
2023-06-20T04:22:28Z,42.805,6.029,13.3031,4.60107,2470.754,2023-6-20T06:24:43Z
2023-06-20T04:25:31Z,42.805,6.029,13.3030,4.60109,2470.763,2023-6-20T06:27:46Z
2023-06-20T04:28:34Z,42.805,6.029,13.3034,4.60104,2470.754,2023-6-20T06:30:49Z
2023-06-20T04:31:38Z,42.805,6.029,13.3031,4.60092,2470.74,2023-6-20T06:33:52Z
2023-06-20T04:34:41Z,42.805,6.029,13.3031,4.60102,2470.763,2023-6-20T06:36:55Z
2023-06-20T04:37:44Z,42.805,6.029,13.3031,4.60089,2470.74,2023-6-20T06:39:58Z
2023-06-20T04:40:47Z,42.805,6.029,13.3032,4.60093,2470.754,2023-6-20T06:43:01Z
2023-06-20T04:43:50Z,42.805,6.029,13.3026,4.60090,2470.703,2023-6-20T06:46:04Z
2023-06-20T04:46:53Z,42.805,6.029,13.3031,4.60092,2470.763,2023-6-20T06:49:07Z
2023-06-20T04:49:56Z,42.805,6.029,13.3029,4.60100,2470.787,2023-6-20T06:52:11Z
2023-06-20T04:52:59Z,42.805,6.029,13.3029,4.60095,2470.763,2023-6-20T06:55:14Z
2023-06-20T04:56:02Z,42.805,6.029,13.3031,4.60103,2470.74,2023-6-20T06:58:17Z
2023-06-20T04:59:05Z,42.805,6.029,13.3030,4.60107,2470.763,2023-6-20T07:01:20Z
2023-06-20T05:02:08Z,42.805,6.029,13.3036,4.60099,2470.777,2023-6-20T07:04:23Z
2023-06-20T05:05:11Z,42.805,6.029,13.3028,4.60097,2470.74,2023-6-20T07:07:26Z
2023-06-20T05:08:14Z,42.805,6.029,13.3029,4.60097,2470.754,2023-6-20T07:10:29Z
2023-06-20T05:11:18Z,42.805,6.029,13.3032,4.60110,2470.74,2023-6-20T07:13:32Z
2023-06-20T05:14:21Z,42.805,6.029,13.3027,4.60091,2470.74,2023-6-20T07:16:35Z
2023-06-20T05:17:24Z,42.805,6.029,13.3024,4.60094,2470.763,2023-6-20T07:19:38Z
2023-06-20T05:20:27Z,42.805,6.029,13.3031,4.60093,2470.74,2023-6-20T07:22:41Z
2023-06-20T05:23:30Z,42.805,6.029,13.3034,4.60097,2470.787,2023-6-20T07:25:44Z
2023-06-20T05:26:33Z,42.805,6.029,13.3029,4.60097,2470.763,2023-6-20T07:28:48Z
2023-06-20T05:29:36Z,42.805,6.029,13.3024,4.60098,2470.763,2023-6-20T07:31:51Z
2023-06-20T05:32:39Z,42.805,6.029,13.3029,4.60092,2470.763,2023-6-20T07:34:54Z
2023-06-20T05:35:42Z,42.805,6.029,13.3030,4.60103,2470.8,2023-6-20T07:37:57Z
2023-06-20T05:38:45Z,42.805,6.029,13.3030,4.60099,2470.777,2023-6-20T07:41:00Z
2023-06-20T05:41:48Z,42.805,6.029,13.3029,4.60094,2470.763,2023-6-20T07:44:03Z
2023-06-20T05:44:52Z,42.805,6.029,13.3035,4.60095,2470.787,2023-6-20T07:47:06Z
2023-06-20T05:47:55Z,42.805,6.029,13.3031,4.60095,2470.787,2023-6-20T07:50:09Z
2023-06-20T05:50:58Z,42.805,6.029,13.3028,4.60094,2470.74,2023-6-20T07:53:12Z
2023-06-20T05:54:01Z,42.805,6.029,13.3029,4.60091,2470.8,2023-6-20T07:56:15Z
2023-06-20T05:57:04Z,42.805,6.029,13.3032,4.60102,2470.74,2023-6-20T07:59:18Z
2023-06-20T06:00:07Z,42.805,6.029,13.3035,4.60106,2470.763,2023-6-20T08:02:21Z
2023-06-20T06:03:10Z,42.805,6.029,13.3028,4.60102,2470.833,2023-6-20T08:05:25Z
2023-06-20T06:06:13Z,42.805,6.029,13.3034,4.60096,2470.787,2023-6-20T08:08:28Z
2023-06-20T06:09:16Z,42.805,6.029,13.3023,4.60092,2470.787,2023-6-20T08:11:31Z
2023-06-20T06:12:19Z,42.805,6.029,13.3029,4.60106,2470.824,2023-6-20T08:14:34Z
2023-06-20T06:15:22Z,42.805,6.029,13.3032,4.60099,2470.787,2023-6-20T08:17:37Z
2023-06-20T06:18:25Z,42.805,6.029,13.3031,4.60093,2470.81,2023-6-20T08:20:40Z
2023-06-20T06:21:28Z,42.805,6.029,13.3030,4.60091,2470.824,2023-6-20T08:23:43Z
2023-06-20T06:24:32Z,42.805,6.029,13.3036,4.60107,2470.833,2023-6-20T08:26:46Z
2023-06-20T06:27:35Z,42.805,6.029,13.3032,4.60107,2470.787,2023-6-20T08:29:49Z
2023-06-20T06:30:39Z,42.805,6.029,13.3026,4.60102,2470.847,2023-6-20T08:32:54Z
2023-06-20T06:33:42Z,42.805,6.029,13.3034,4.60099,2470.8,2023-6-20T08:35:57Z
2023-06-20T06:36:45Z,42.805,6.029,13.3031,4.60102,2470.81,2023-6-20T08:39:00Z
2023-06-20T06:39:49Z,42.805,6.029,13.3031,4.60097,2470.824,2023-6-20T08:42:03Z
2023-06-20T06:42:52Z,42.805,6.029,13.3031,4.60091,2470.88,2023-6-20T08:45:06Z
2023-06-20T06:45:55Z,42.805,6.029,13.3034,4.60108,2470.857,2023-6-20T08:48:09Z
2023-06-20T06:48:58Z,42.805,6.029,13.3026,4.60099,2470.833,2023-6-20T08:51:12Z
2023-06-20T06:52:01Z,42.805,6.029,13.3027,4.60097,2470.81,2023-6-20T08:54:15Z
2023-06-20T06:55:04Z,42.805,6.029,13.3034,4.60097,2470.81,2023-6-20T08:57:19Z
2023-06-20T06:58:07Z,42.805,6.029,13.3031,4.60095,2470.833,2023-6-20T09:00:22Z
2023-06-20T07:01:10Z,42.805,6.029,13.3029,4.60106,2470.81,2023-6-20T09:03:25Z
2023-06-20T07:04:13Z,42.805,6.029,13.3030,4.60097,2470.81,2023-6-20T09:06:28Z
2023-06-20T07:07:16Z,42.805,6.029,13.3031,4.60102,2470.833,2023-6-20T09:09:31Z
2023-06-20T07:10:19Z,42.805,6.029,13.3036,4.60107,2470.81,2023-6-20T09:12:34Z
2023-06-20T07:13:22Z,42.805,6.029,13.3030,4.60098,2470.81,2023-6-20T09:15:37Z
2023-06-20T07:16:26Z,42.805,6.029,13.3031,4.60099,2470.81,2023-6-20T09:18:40Z
2023-06-20T07:19:29Z,42.805,6.029,13.3027,4.60107,2470.833,2023-6-20T09:21:43Z
2023-06-20T07:22:32Z,42.805,6.029,13.3031,4.60102,2470.81,2023-6-20T09:24:46Z
2023-06-20T07:25:35Z,42.805,6.029,13.3030,4.60093,2470.833,2023-6-20T09:27:49Z
2023-06-20T07:28:38Z,42.805,6.029,13.3027,4.60093,2470.833,2023-6-20T09:30:52Z
2023-06-20T07:31:41Z,42.805,6.029,13.3029,4.60104,2470.833,2023-6-20T09:33:56Z
2023-06-20T07:34:44Z,42.805,6.029,13.3030,4.60107,2470.824,2023-6-20T09:36:59Z
2023-06-20T07:37:47Z,42.805,6.029,13.3031,4.60093,2470.833,2023-6-20T09:40:02Z
2023-06-20T07:40:50Z,42.805,6.029,13.3028,4.60094,2470.857,2023-6-20T09:43:05Z
2023-06-20T07:43:53Z,42.805,6.029,13.3028,4.60089,2470.833,2023-6-20T09:46:08Z
2023-06-20T07:46:56Z,42.805,6.029,13.3029,4.60099,2470.847,2023-6-20T09:49:11Z
2023-06-20T07:49:59Z,42.805,6.029,13.3029,4.60093,2470.833,2023-6-20T09:52:14Z
2023-06-20T07:53:03Z,42.805,6.029,13.3025,4.60094,2470.847,2023-6-20T09:55:17Z
2023-06-20T07:56:06Z,42.805,6.029,13.3031,4.60106,2470.81,2023-6-20T09:58:20Z
2023-06-20T07:59:09Z,42.805,6.029,13.3043,4.60119,2470.847,2023-6-20T10:01:23Z
2023-06-20T08:02:12Z,42.805,6.029,13.3029,4.60102,2470.81,2023-6-20T10:04:26Z
2023-06-20T08:05:15Z,42.805,6.029,13.3026,4.60104,2470.81,2023-6-20T10:07:29Z
2023-06-20T08:08:18Z,42.805,6.029,13.3034,4.60112,2470.847,2023-6-20T10:10:33Z
2023-06-20T08:11:21Z,42.805,6.029,13.3029,4.60097,2470.833,2023-6-20T10:13:36Z
2023-06-20T08:14:24Z,42.805,6.029,13.3027,4.60104,2470.847,2023-6-20T10:16:39Z
2023-06-20T08:17:27Z,42.805,6.029,13.3033,4.60094,2470.824,2023-6-20T10:19:42Z
2023-06-20T08:20:30Z,42.805,6.029,13.3030,4.60096,2470.833,2023-6-20T10:22:45Z
2023-06-20T08:23:33Z,42.805,6.029,13.3031,4.60099,2470.847,2023-6-20T10:25:48Z
2023-06-20T08:26:37Z,42.805,6.029,13.3026,4.60095,2470.847,2023-6-20T10:28:51Z
2023-06-20T08:29:40Z,42.805,6.029,13.3024,4.60098,2470.833,2023-6-20T10:31:54Z
2023-06-20T08:32:42Z,42.805,6.029,13.3029,4.60100,2470.81,2023-6-20T10:34:57Z
2023-06-20T08:35:45Z,42.805,6.029,13.3027,4.60099,2470.847,2023-6-20T10:38:00Z
2023-06-20T08:38:48Z,42.805,6.029,13.3024,4.60089,2470.833,2023-6-20T10:41:03Z
2023-06-20T08:41:51Z,42.805,6.029,13.3030,4.60101,2470.81,2023-6-20T10:44:06Z
2023-06-20T08:44:55Z,42.805,6.029,13.3027,4.60101,2470.787,2023-6-20T10:47:09Z
2023-06-20T08:47:58Z,42.805,6.029,13.3028,4.60097,2470.847,2023-6-20T10:50:12Z
2023-06-20T08:51:01Z,42.805,6.029,13.3027,4.60114,2470.81,2023-6-20T10:53:15Z
2023-06-20T08:54:04Z,42.805,6.029,13.3028,4.60098,2470.833,2023-6-20T10:56:18Z
2023-06-20T08:57:07Z,42.805,6.029,13.3029,4.60101,2470.833,2023-6-20T10:59:21Z
2023-06-20T09:00:10Z,42.805,6.029,13.3031,4.60101,2470.81,2023-6-20T11:02:25Z
2023-06-20T09:03:13Z,42.805,6.029,13.3031,4.60094,2470.81,2023-6-20T11:05:28Z
2023-06-20T09:06:16Z,42.805,6.029,13.3031,4.60101,2470.833,2023-6-20T11:08:31Z
2023-06-20T09:09:19Z,42.805,6.029,13.3023,4.60091,2470.824,2023-6-20T11:11:34Z
2023-06-20T09:12:22Z,42.805,6.029,13.3029,4.60101,2470.8,2023-6-20T11:14:37Z
2023-06-20T09:15:25Z,42.805,6.029,13.3030,4.60101,2470.787,2023-6-20T11:17:40Z
2023-06-20T09:18:29Z,42.805,6.029,13.3029,4.60104,2470.787,2023-6-20T11:20:43Z
2023-06-20T09:21:32Z,42.805,6.029,13.3023,4.60103,2470.833,2023-6-20T11:23:46Z
2023-06-20T09:24:35Z,42.805,6.029,13.3027,4.60095,2470.8,2023-6-20T11:26:49Z
2023-06-20T09:27:38Z,42.805,6.029,13.3028,4.60097,2470.81,2023-6-20T11:29:52Z
2023-06-20T09:30:41Z,42.805,6.029,13.3023,4.60089,2470.777,2023-6-20T11:32:55Z
2023-06-20T09:33:44Z,42.805,6.029,13.3026,4.60089,2470.81,2023-6-20T11:35:59Z
2023-06-20T09:36:47Z,42.805,6.029,13.3031,4.60094,2470.787,2023-6-20T11:39:02Z
2023-06-20T09:39:50Z,42.805,6.029,13.3031,4.60103,2470.871,2023-6-20T11:42:05Z
2023-06-20T09:42:53Z,42.805,6.029,13.3031,4.60106,2470.8,2023-6-20T11:45:08Z
2023-06-20T09:45:56Z,42.805,6.029,13.3026,4.60100,2470.81,2023-6-20T11:48:11Z
2023-06-20T09:48:59Z,42.805,6.029,13.3032,4.60114,2470.787,2023-6-20T11:51:14Z
2023-06-20T09:52:03Z,42.805,6.029,13.3029,4.60113,2470.81,2023-6-20T11:54:17Z
2023-06-20T09:55:06Z,42.805,6.029,13.3024,4.60096,2470.787,2023-6-20T11:57:20Z
2023-06-20T09:58:09Z,42.805,6.029,13.3026,4.60094,2470.787,2023-6-20T12:00:23Z
2023-06-20T10:01:12Z,42.805,6.029,13.3031,4.60097,2470.777,2023-6-20T12:03:26Z
2023-06-20T10:04:15Z,42.805,6.029,13.3026,4.60097,2470.777,2023-6-20T12:06:29Z
2023-06-20T10:07:18Z,42.805,6.029,13.3026,4.60097,2470.81,2023-6-20T12:09:32Z
2023-06-20T10:10:21Z,42.805,6.029,13.3024,4.60095,2470.8,2023-6-20T12:12:36Z
2023-06-20T10:13:24Z,42.805,6.029,13.3026,4.60097,2470.81,2023-6-20T12:15:39Z
2023-06-20T10:16:27Z,42.805,6.029,13.3032,4.60095,2470.81,2023-6-20T12:18:42Z
2023-06-20T10:19:30Z,42.805,6.029,13.3026,4.60090,2470.74,2023-6-20T12:21:45Z
2023-06-20T10:22:33Z,42.805,6.029,13.3028,4.60102,2470.787,2023-6-20T12:24:48Z
2023-06-20T10:25:36Z,42.805,6.029,13.3023,4.60103,2470.74,2023-6-20T12:27:51Z
2023-06-20T10:28:40Z,42.805,6.029,13.3029,4.60101,2470.8,2023-6-20T12:30:54Z
2023-06-20T10:31:43Z,42.805,6.029,13.3026,4.60096,2470.787,2023-6-20T12:33:57Z
2023-06-20T10:34:46Z,42.805,6.029,13.3027,4.60102,2470.74,2023-6-20T12:37:00Z
2023-06-20T10:37:49Z,42.805,6.029,13.3031,4.60098,2470.81,2023-6-20T12:40:03Z
2023-06-20T10:40:52Z,42.805,6.029,13.3024,4.60097,2470.777,2023-6-20T12:43:06Z
2023-06-20T10:43:55Z,42.805,6.029,13.3026,4.60092,2470.763,2023-6-20T12:46:10Z
2023-06-20T10:46:58Z,42.805,6.029,13.3026,4.60104,2470.763,2023-6-20T12:49:13Z
2023-06-20T10:50:01Z,42.805,6.029,13.3024,4.60093,2470.754,2023-6-20T12:52:16Z
2023-06-20T10:53:04Z,42.805,6.029,13.3021,4.60087,2470.777,2023-6-20T12:55:19Z
2023-06-20T10:56:07Z,42.805,6.029,13.3027,4.60101,2470.777,2023-6-20T12:58:22Z
2023-06-20T10:59:10Z,42.805,6.029,13.3031,4.60110,2470.8,2023-6-20T13:01:25Z
2023-06-20T11:02:14Z,42.805,6.029,13.3023,4.60092,2470.777,2023-6-20T13:04:28Z
2023-06-20T11:05:17Z,42.805,6.029,13.3030,4.60096,2470.74,2023-6-20T13:07:31Z
2023-06-20T11:08:20Z,42.805,6.029,13.3030,4.60089,2470.74,2023-6-20T13:10:34Z
2023-06-20T11:11:23Z,42.805,6.029,13.3025,4.60095,2470.754,2023-6-20T13:13:37Z
2023-06-20T11:14:26Z,42.805,6.029,13.3030,4.60091,2470.74,2023-6-20T13:16:40Z
2023-06-20T11:17:29Z,42.805,6.029,13.3030,4.60098,2470.763,2023-6-20T13:19:44Z
2023-06-20T11:20:32Z,42.805,6.029,13.3029,4.60088,2470.717,2023-6-20T13:22:47Z
2023-06-20T11:23:35Z,42.805,6.029,13.3024,4.60091,2470.74,2023-6-20T13:25:50Z
2023-06-20T11:26:38Z,42.805,6.029,13.3025,4.60092,2470.754,2023-6-20T13:28:53Z
2023-06-20T11:29:41Z,42.805,6.029,13.3019,4.60087,2470.717,2023-6-20T13:31:56Z
2023-06-20T11:32:44Z,42.805,6.029,13.3025,4.60089,2470.717,2023-6-20T13:34:59Z
2023-06-20T11:35:47Z,42.805,6.029,13.3026,4.60100,2470.73,2023-6-20T13:38:02Z
2023-06-20T11:38:51Z,42.805,6.029,13.3028,4.60105,2470.717,2023-6-20T13:41:05Z
2023-06-20T11:41:54Z,42.805,6.029,13.3033,4.60097,2470.717,2023-6-20T13:44:08Z
2023-06-20T11:44:57Z,42.805,6.029,13.3024,4.60093,2470.717,2023-6-20T13:47:11Z
2023-06-20T11:48:00Z,42.805,6.029,13.3031,4.60093,2470.763,2023-6-20T13:50:14Z
2023-06-20T11:51:03Z,42.805,6.029,13.3031,4.60097,2470.74,2023-6-20T13:53:17Z
2023-06-20T11:54:06Z,42.805,6.029,13.3029,4.60094,2470.717,2023-6-20T13:56:21Z
2023-06-20T11:57:09Z,42.805,6.029,13.3029,4.60095,2470.693,2023-6-20T13:59:24Z
2023-06-20T12:00:12Z,42.805,6.029,13.3021,4.60093,2470.717,2023-6-20T14:02:27Z
2023-06-20T12:03:15Z,42.805,6.029,13.3029,4.60087,2470.73,2023-6-20T14:05:30Z
2023-06-20T12:06:18Z,42.805,6.029,13.3027,4.60090,2470.754,2023-6-20T14:08:33Z
2023-06-20T12:09:21Z,42.805,6.029,13.3024,4.60084,2470.73,2023-6-20T14:11:36Z
2023-06-20T12:12:25Z,42.805,6.029,13.3023,4.60091,2470.717,2023-6-20T14:14:39Z
2023-06-20T12:15:28Z,42.805,6.029,13.3029,4.60096,2470.693,2023-6-20T14:17:42Z
2023-06-20T12:18:31Z,42.805,6.029,13.3026,4.60099,2470.717,2023-6-20T14:20:45Z
2023-06-20T12:21:34Z,42.805,6.029,13.3031,4.60094,2470.693,2023-6-20T14:23:48Z
2023-06-20T12:24:37Z,42.805,6.029,13.3026,4.60102,2470.717,2023-6-20T14:26:51Z
2023-06-20T12:27:40Z,42.805,6.029,13.3032,4.60105,2470.693,2023-6-20T14:29:55Z
2023-06-20T12:30:43Z,42.805,6.029,13.3031,4.60097,2470.703,2023-6-20T14:32:58Z
2023-06-20T12:33:47Z,42.805,6.029,13.3027,4.60094,2470.717,2023-6-20T14:36:01Z
2023-06-20T12:36:50Z,42.805,6.029,13.3029,4.60094,2470.74,2023-6-20T14:39:04Z
2023-06-20T12:39:53Z,42.805,6.029,13.3024,4.60092,2470.693,2023-6-20T14:42:07Z
2023-06-20T12:42:56Z,42.805,6.029,13.3029,4.60107,2470.693,2023-6-20T14:45:10Z
2023-06-20T12:45:59Z,42.805,6.029,13.3033,4.60096,2470.693,2023-6-20T14:48:13Z
2023-06-20T12:49:02Z,42.805,6.029,13.3026,4.60099,2470.684,2023-6-20T14:51:17Z
2023-06-20T12:52:05Z,42.805,6.029,13.3026,4.60098,2470.707,2023-6-20T14:54:20Z
2023-06-20T12:55:08Z,42.805,6.029,13.3029,4.60099,2470.693,2023-6-20T14:57:23Z
2023-06-20T12:58:11Z,42.805,6.029,13.3032,4.60098,2470.67,2023-6-20T15:00:26Z
2023-06-20T13:01:14Z,42.805,6.029,13.3029,4.60092,2470.707,2023-6-20T15:03:29Z
2023-06-20T13:04:17Z,42.805,6.029,13.3026,4.60098,2470.717,2023-6-20T15:06:32Z
2023-06-20T13:07:21Z,42.805,6.029,13.3025,4.60095,2470.707,2023-6-20T15:09:35Z
2023-06-20T13:10:24Z,42.805,6.029,13.3023,4.60089,2470.707,2023-6-20T15:12:38Z
2023-06-20T13:13:27Z,42.805,6.029,13.3026,4.60094,2470.717,2023-6-20T15:15:41Z
2023-06-20T13:16:30Z,42.805,6.029,13.3031,4.60097,2470.693,2023-6-20T15:18:44Z
2023-06-20T13:19:33Z,42.805,6.029,13.3029,4.60093,2470.73,2023-6-20T15:21:47Z
2023-06-20T13:22:36Z,42.805,6.029,13.3026,4.60090,2470.693,2023-6-20T15:24:51Z
2023-06-20T13:25:39Z,42.805,6.029,13.3026,4.60102,2470.693,2023-6-20T15:27:54Z
2023-06-20T13:28:42Z,42.805,6.029,13.3026,4.60092,2470.684,2023-6-20T15:30:57Z
2023-06-20T13:31:45Z,42.805,6.029,13.3026,4.60089,2470.684,2023-6-20T15:34:00Z
2023-06-20T13:34:48Z,42.805,6.029,13.3031,4.60099,2470.707,2023-6-20T15:37:03Z
2023-06-20T13:37:51Z,42.805,6.029,13.3033,4.60097,2470.707,2023-6-20T15:40:06Z
2023-06-20T13:40:55Z,42.805,6.029,13.3026,4.60088,2470.707,2023-6-20T15:43:09Z
2023-06-20T13:43:58Z,42.805,6.029,13.3026,4.60089,2470.693,2023-6-20T15:46:12Z
2023-06-20T13:47:01Z,42.805,6.029,13.3030,4.60094,2470.684,2023-6-20T15:49:15Z
2023-06-20T13:50:04Z,42.805,6.029,13.3029,4.60095,2470.707,2023-6-20T15:52:18Z
2023-06-20T13:53:07Z,42.805,6.029,13.3031,4.60098,2470.67,2023-6-20T15:55:21Z
2023-06-20T13:56:10Z,42.805,6.029,13.3031,4.60092,2470.67,2023-6-20T15:58:25Z
2023-06-20T13:59:13Z,42.805,6.029,13.3028,4.60095,2470.67,2023-6-20T16:01:28Z
2023-06-20T14:02:16Z,42.805,6.029,13.3028,4.60087,2470.693,2023-6-20T16:04:31Z
2023-06-20T14:05:19Z,42.805,6.029,13.3034,4.60096,2470.67,2023-6-20T16:07:34Z
2023-06-20T14:08:22Z,42.805,6.029,13.3026,4.60095,2470.693,2023-6-20T16:10:37Z
2023-06-20T14:11:25Z,42.805,6.029,13.3030,4.60091,2470.67,2023-6-20T16:13:40Z
2023-06-20T14:14:28Z,42.805,6.029,13.3033,4.60090,2470.67,2023-6-20T16:16:43Z
2023-06-20T14:17:32Z,42.805,6.029,13.3029,4.60090,2470.693,2023-6-20T16:19:46Z
2023-06-20T14:20:35Z,42.805,6.029,13.3028,4.60095,2470.67,2023-6-20T16:22:49Z
2023-06-20T14:23:38Z,42.805,6.029,13.3026,4.60091,2470.67,2023-6-20T16:25:52Z
2023-06-20T14:26:41Z,42.805,6.029,13.3024,4.60089,2470.67,2023-6-20T16:28:55Z
2023-06-20T14:29:44Z,42.805,6.029,13.3033,4.60088,2470.707,2023-6-20T16:31:59Z
2023-06-20T14:32:48Z,42.805,6.029,13.3029,4.60099,2470.67,2023-6-20T16:35:02Z
2023-06-20T14:35:51Z,42.805,6.029,13.3033,4.60093,2470.646,2023-6-20T16:38:05Z
2023-06-20T14:38:54Z,42.805,6.029,13.3039,4.60104,2470.67,2023-6-20T16:41:08Z
2023-06-20T14:41:57Z,42.805,6.029,13.3022,4.60101,2470.693,2023-6-20T16:44:11Z
2023-06-20T14:45:00Z,42.805,6.029,13.3030,4.60097,2470.693,2023-6-20T16:47:14Z
2023-06-20T14:48:03Z,42.805,6.029,13.3028,4.60104,2470.661,2023-6-20T16:50:18Z
2023-06-20T14:51:06Z,42.805,6.029,13.3025,4.60093,2470.661,2023-6-20T16:53:21Z
2023-06-20T14:54:09Z,42.805,6.029,13.3029,4.60097,2470.684,2023-6-20T16:56:24Z
2023-06-20T14:57:12Z,42.805,6.029,13.3028,4.60099,2470.67,2023-6-20T16:59:27Z
2023-06-20T15:00:15Z,42.805,6.029,13.3031,4.60101,2470.67,2023-6-20T17:02:30Z
2023-06-20T15:03:18Z,42.805,6.029,13.3027,4.60092,2470.67,2023-6-20T17:05:33Z
2023-06-20T15:06:21Z,42.805,6.029,13.3028,4.60089,2470.67,2023-6-20T17:08:36Z
2023-06-20T15:09:25Z,42.805,6.029,13.3032,4.60096,2470.693,2023-6-20T17:11:39Z
2023-06-20T15:12:28Z,42.805,6.029,13.3031,4.60097,2470.67,2023-6-20T17:14:42Z